#timestamp,LO_Frequency,Hit,StdDev 
1684832415.8,286046999.5,N
1684832435.6,286046998.2,N
1684832455.5,286046998.1,N
1684832475.3,286046998.6,N
1684832495.2,286047001.1,N
1684832515.9,286047000.4,N
1684832535.7,286047005.1,Y
1684832555.6,286047009.3,P
1684832575.4,286047015.0,P
1684832595.2,286047009.3,N
1684832615.1,286047016.9,Y
1684832616.0,286047016.9,P
1684832635.8,286047013.6,P
1684832655.7,286047013.3,P
1684832675.5,286047014.0,Y
1684832695.3,286046995.6,P
1684832715.2,286046992.0,N
1684832735.0,286046987.6,N
1684832735.9,286046987.6,N
1684832755.7,286046980.9,N
1684832775.6,286046976.1,N
1684832795.4,286046972.6,N
1684832815.3,286046970.1,N
1684832835.1,286046967.0,N
1684832836.0,286046967.0,N
1684832855.8,286046963.1,N
1684832875.7,286046964.4,N
1684832895.5,286046960.0,N
1684832915.3,286046960.4,N
1684832935.2,286046960.7,N
1684832955.0,286046958.2,N
1684832955.9,286046958.2,N
1684832975.8,286046958.5,N
1684832995.6,286046956.8,N
1684833015.4,286046957.9,N
1684833035.3,286046955.9,N
1684833055.1,286046957.0,N
1684833075.9,286046957.2,N
1684833095.7,286046957.6,N
1684833115.5,286046956.2,N
1684833135.4,286046956.2,N
1684833155.2,286046955.8,N
1684833175.0,286046954.6,Y
1684833175.9,286046954.6,P
1684833195.8,286046986.8,N
1684833215.6,286046992.6,N
1684833235.5,286046997.5,N
1684833255.3,286046992.6,N
1684833275.1,286046992.6,N
1684833295.9,286046989.2,N
1684833315.7,286046989.8,N
1684833335.5,286046987.4,N
1684833355.4,286046987.2,N
1684833375.2,286046986.2,N
1684833395.1,286046986.8,N
1684833396.0,286046986.8,N
1684833415.8,286046982.3,N
1684833435.6,286046981.0,N
1684833455.5,286046981.1,N
1684833475.3,286046981.4,N
1684833495.1,286046979.7,N
1684833515.9,286046980.2,N
1684833535.7,286046980.2,N
1684833555.6,286046979.4,N
1684833575.4,286046981.0,N
1684833595.2,286046982.2,N
1684833615.1,286046985.3,N
1684833616.0,286046985.3,N
1684833635.8,286046983.9,N
1684833655.6,286046985.2,N
1684833675.5,286046981.7,N
1684833695.3,286046984.2,N
1684833715.2,286046989.8,N
1684833735.9,286046990.8,N
1684833755.7,286046992.8,N
1684833775.6,286046991.4,N
1684833795.4,286046989.5,N
1684833815.2,286046989.5,N
1684833835.1,286046987.3,Y
1684833836.0,286046987.3,P
1684833855.8,286047002.8,P
1684833875.7,286046998.1,N
1684833895.5,286046998.8,N
1684833915.3,286046996.6,N
1684833935.2,286046997.2,N
1684833955.0,286046995.7,N
1684833955.9,286046995.7,N
1684833975.7,286046997.4,N
1684833995.6,286047000.5,N
1684834015.4,286047007.1,N
1684834035.3,286047008.5,N
1684834055.1,286047010.8,N
1684834056.0,286047010.8,N
1684834075.8,286047010.7,N
1684834095.7,286047008.4,N
1684834115.5,286047007.9,N
1684834135.3,286047007.6,N
1684834155.2,286047005.3,N
1684834175.0,286047004.9,N
1684834175.9,286047004.9,N
1684834195.8,286047005.4,N
1684834215.6,286047003.7,N
1684834235.4,286047003.0,N
1684834255.3,286047003.3,N
1684834275.1,286047010.8,N
1684834295.8,286047017.7,N
1684834315.7,286047021.1,N
1684834335.5,286047025.8,Y
1684834355.4,286047025.7,P
1684834375.2,286047026.9,N
1684834395.0,286047024.0,N
1684834395.9,286047024.0,N
1684834415.8,286047023.0,N
1684834435.6,286047024.9,Y
1684834455.5,286047007.1,P
1684834475.3,286047001.8,N
1684834495.1,286046998.4,N
1684834515.9,286046995.8,N
1684834535.7,286046994.0,N
1684834555.5,286046995.5,N
1684834575.4,286047002.5,N
1684834595.2,286047004.3,N
1684834615.1,286047004.6,N
1684834616.0,286047004.6,N
1684834635.8,286047011.2,N
1684834655.6,286047011.5,N
1684834675.5,286047008.2,N
1684834695.3,286047005.2,N
1684834715.1,286046999.7,N
1684834735.9,286046996.3,N
1684834755.7,286046990.2,N
1684834775.6,286046989.8,N
1684834795.4,286046987.7,N
1684834815.2,286046985.7,N
1684834835.1,286046986.6,N
1684834836.0,286046986.6,N
1684834855.8,286046983.8,N
1684834875.6,286046985.0,N
1684834895.5,286046982.9,N
1684834915.3,286046983.0,N
1684834935.2,286046984.3,N
1684834955.9,286046986.0,N
1684834975.7,286046988.2,N
1684834995.6,286046990.7,N
1684835015.4,286046991.9,N
1684835035.2,286046995.2,N
1684835055.1,286046999.6,N
1684835056.0,286046999.6,N
1684835075.8,286047003.5,N
1684835095.7,286047007.4,N
1684835115.5,286047007.9,N
1684835135.3,286047012.3,N
1684835155.2,286047013.9,N
1684835175.0,286047011.8,N
1684835175.9,286047011.8,N
1684835195.7,286047010.8,N
1684835215.6,286047008.1,N
1684835235.4,286047007.2,N
1684835255.3,286047001.5,N
1684835275.1,286047005.0,N
1684835276.0,286047005.0,N
1684835295.8,286047003.4,N
1684835315.7,286047004.7,N
1684835335.5,286047011.2,N
1684835355.3,286047009.8,N
1684835375.2,286047007.9,N
1684835395.0,286047011.5,N
1684835395.9,286047011.5,N
1684835415.8,286047012.7,N
1684835435.6,286047015.0,N
1684835455.4,286047012.7,N
1684835475.3,286047012.5,N
1684835495.1,286047014.1,N
1684835515.8,286047014.2,N
1684835535.7,286047018.0,Y
1684835555.5,286047013.5,P
1684835575.4,286047013.6,P
1684835595.2,286047012.4,P
1684835615.0,286047013.1,Y
1684835615.9,286047013.1,P
1684835635.8,286047003.4,P
1684835655.6,286047003.2,N
1684835675.4,286047003.0,N
1684835695.3,286047002.9,N
1684835715.1,286047011.9,N
1684835735.9,286046999.8,N
1684835755.7,286047003.6,N
1684835775.5,286047002.9,N
1684835795.4,286047005.5,N
1684835815.2,286047003.7,N
1684835835.0,286047000.5,N
1684835835.9,286047000.5,N
1684835855.8,286046998.4,N
1684835875.6,286047000.0,N
1684835895.5,286047001.7,N
1684835915.3,286047004.4,N
1684835935.1,286047001.9,N
1684835955.9,286046998.5,N
1684835975.7,286046995.4,N
1684835995.5,286046993.4,N
